Daviess Cnty AP, Washington,, IN

9:41 PM EST on December 15, 2019 (GMT -0500)
Daviess County

Weather History for KDCY - October, 2019

Change the Weather History Date:

Tuesday, October 29, 2019

  Actual Average (KLWV) Record (KLWV)
Temperature  
Mean Temperature 52 °F -  
Max Temperature 58 °F 61 °F 82 °F (2016)
Min Temperature 47 °F 41 °F 28 °F (2005)
Degree Days  
Heating Degree Days 12    
Growing Degree Days 2 (Base 50)    
Moisture  
Dew Point 50 °F    
Average Humidity 89    
Maximum Humidity 99    
Minimum Humidity 74    
Precipitation  
Precipitation 0.00 in - - ()
Sea Level Pressure  
Sea Level Pressure 30.14 in    
Wind  
Wind Speed 6 mph (WSW)    
Max Wind Speed 12 mph    
Max Gust Speed -    
Visibility 10 miles    
Events      
Averages and records for this station are not official NWS values.
T = Trace of Precipitation, MM = Missing Value Source: NWS Daily Summary

Daily Weather History Graph

Daily Weather History Graph

Search for Another Location

Airport or City:

Astronomy

Oct. 29, 2019 Rise Set
Actual Time 8:11 AM EDT 6:51 PM EDT
Civil Twilight 7:44 AM EDT 7:19 PM EDT
Nautical Twilight 7:13 AM EDT 7:50 PM EDT
Astronomical Twilight 6:42 AM EDT 8:21 PM EDT
Moon 9:44 AM EDT (10/29) 8:16 PM EDT (10/29)
Length of Visible Light 11h 34m
Length of Day
10h 40m
Waxing Crescent, 3% of the Moon is Illuminated
Oct 29
Waxing Crescent
Nov 4
First Quarter
Nov 12
Full
Nov 19
Last Quarter
Nov 26
New

Hourly Weather History & Observations

Time (EDT) Temp. Dew Point Humidity Pressure Visibility Wind Dir Wind Speed Gust Speed Precip Events Conditions
12:15 AM 54.5 °F 52.7 °F 94% 30.05 in 10.0 mi South 4.6 mph - N/A   Overcast
12:35 AM 54.7 °F 52.7 °F 93% 30.05 in 10.0 mi South 4.6 mph - N/A   Overcast
12:55 AM 54.9 °F 52.5 °F 92% 30.05 in 10.0 mi South 5.8 mph - N/A   Overcast
1:15 AM 54.9 °F 52.7 °F 92% 30.05 in 10.0 mi South 5.8 mph - N/A   Overcast
1:35 AM 54.9 °F 52.7 °F 92% 30.05 in 10.0 mi South 4.6 mph - N/A   Overcast
1:55 AM 55.0 °F 52.7 °F 92% 30.05 in 10.0 mi South 5.8 mph - N/A   Overcast
2:15 AM 55.2 °F 52.7 °F 91% 30.05 in 10.0 mi South 5.8 mph - N/A   Overcast
2:35 AM 55.4 °F 52.7 °F 91% 30.05 in 10.0 mi South 6.9 mph - N/A   Overcast
2:55 AM 55.2 °F 52.9 °F 92% 30.06 in 10.0 mi South 5.8 mph - N/A   Overcast
3:15 AM 55.2 °F 53.1 °F 92% 30.06 in 10.0 mi South 5.8 mph - N/A   Overcast
3:35 AM 55.0 °F 53.4 °F 94% 30.05 in 10.0 mi South 6.9 mph - N/A   Overcast
3:55 AM 55.0 °F 53.2 °F 94% 30.04 in 10.0 mi SSE 6.9 mph - N/A   Overcast
4:15 AM 55.2 °F 52.9 °F 92% 30.04 in 10.0 mi South 6.9 mph - N/A   Overcast
4:35 AM 54.9 °F 53.2 °F 94% 30.05 in 10.0 mi South 4.6 mph - N/A   Overcast
4:55 AM 55.2 °F 53.1 °F 92% 30.05 in 10.0 mi South 8.1 mph - N/A   Overcast
5:15 AM 55.4 °F 53.1 °F 92% 30.06 in 10.0 mi SSW 6.9 mph - N/A   Overcast
5:35 AM 55.2 °F 53.4 °F 94% 30.06 in 10.0 mi SSW 5.8 mph - N/A   Overcast
5:55 AM 55.2 °F 53.4 °F 94% 30.06 in 10.0 mi SSW 5.8 mph - N/A   Overcast
6:15 AM 54.9 °F 53.4 °F 95% 30.07 in 10.0 mi SSW 4.6 mph - N/A   Overcast
6:35 AM 54.5 °F 53.6 °F 97% 30.07 in 10.0 mi South 4.6 mph - N/A   Overcast
6:55 AM 53.8 °F 53.2 °F 98% 30.08 in 10.0 mi South 4.6 mph - N/A   Overcast
7:15 AM 53.2 °F 52.9 °F 99% 30.08 in 10.0 mi South 4.6 mph - N/A   Overcast
7:35 AM 53.1 °F 52.9 °F 99% 30.09 in 10.0 mi South 4.6 mph - N/A   Overcast
7:55 AM 53.2 °F 53.1 °F 99% 30.10 in 10.0 mi South 4.6 mph - N/A   Overcast
8:15 AM 53.6 °F 53.2 °F 99% 30.10 in 10.0 mi South 5.8 mph - N/A   Overcast
8:35 AM 53.6 °F 53.1 °F 98% 30.11 in 10.0 mi South 4.6 mph - N/A   Overcast
8:55 AM 54.0 °F 53.6 °F 99% 30.12 in 10.0 mi South 4.6 mph - N/A   Overcast
9:15 AM 54.5 °F 54.1 °F 99% 30.13 in 10.0 mi SSW 5.8 mph - N/A   Overcast
9:35 AM 54.9 °F 53.6 °F 96% 30.14 in 10.0 mi SW 4.6 mph - N/A   Overcast
9:55 AM 55.4 °F 54.1 °F 96% 30.15 in 7.0 mi SW 8.1 mph - N/A   Overcast
10:15 AM 55.0 °F 54.7 °F 99% 30.16 in 7.0 mi SW 5.8 mph - N/A   Overcast
10:35 AM 55.6 °F 54.5 °F 96% 30.16 in 10.0 mi SW 5.8 mph - N/A   Overcast
10:55 AM 56.1 °F 53.6 °F 91% 30.16 in 10.0 mi WSW 5.8 mph - N/A   Overcast
11:15 AM 55.9 °F 52.9 °F 89% 30.17 in 10.0 mi SW 9.2 mph - N/A   Overcast
11:35 AM 56.8 °F 52.9 °F 87% 30.17 in 10.0 mi WSW 4.6 mph - N/A   Overcast
11:55 AM 57.4 °F 52.0 °F 82% 30.17 in 10.0 mi WSW 5.8 mph - N/A   Overcast
12:15 PM 58.3 °F 51.3 °F 77% 30.17 in 10.0 mi SW 4.6 mph - N/A   Overcast
12:35 PM 58.1 °F 50.9 °F 77% 30.17 in 10.0 mi SW 8.1 mph - N/A   Overcast
12:55 PM 58.3 °F 50.2 °F 74% 30.18 in 10.0 mi West 5.8 mph - N/A   Overcast
1:15 PM 58.1 °F 50.2 °F 75% 30.18 in 10.0 mi West 8.1 mph - N/A   Overcast
1:35 PM 53.4 °F 49.5 °F 86% 30.19 in 10.0 mi WNW 11.5 mph - N/A   Overcast
1:55 PM 52.7 °F 49.1 °F 88% 30.19 in 10.0 mi WNW 10.4 mph - N/A   Overcast
2:15 PM 52.2 °F 49.1 °F 89% 30.18 in 7.0 mi NW 9.2 mph - N/A   Overcast
2:35 PM 52.7 °F 48.9 °F 87% 30.18 in 10.0 mi WNW 8.1 mph - N/A   Overcast
2:55 PM 54.1 °F 49.5 °F 84% 30.17 in 10.0 mi WNW 3.5 mph - N/A   Overcast
3:15 PM 56.3 °F 50.2 °F 80% 30.17 in 10.0 mi West 4.6 mph - N/A   Overcast
3:35 PM 56.3 °F 50.0 °F 79% 30.17 in 10.0 mi NW 6.9 mph - N/A   Overcast
3:55 PM 56.5 °F 50.4 °F 80% 30.18 in 10.0 mi WNW 5.8 mph - N/A   Overcast
4:15 PM 56.5 °F 50.2 °F 79% 30.18 in 10.0 mi NW 5.8 mph - N/A   Overcast
4:35 PM 54.3 °F 47.5 °F 78% 30.19 in 10.0 mi NNW 11.5 mph - N/A   Overcast
4:55 PM 53.6 °F 47.3 °F 79% 30.20 in 10.0 mi NW 9.2 mph - N/A   Overcast
5:15 PM 52.7 °F 46.8 °F 80% 30.20 in 10.0 mi NW 10.4 mph - N/A   Overcast
5:35 PM 52.0 °F 46.4 °F 81% 30.20 in 10.0 mi NW 10.4 mph - N/A   Overcast
5:55 PM 51.1 °F 46.2 °F 83% 30.20 in 10.0 mi NW 9.2 mph - N/A   Overcast
6:15 PM 50.0 °F 45.1 °F 83% 30.20 in 10.0 mi NW 10.4 mph - N/A   Overcast
6:35 PM 49.1 °F 44.8 °F 85% 30.20 in 10.0 mi NNW 9.2 mph - N/A   Overcast
6:55 PM 48.7 °F 44.8 °F 86% 30.20 in 10.0 mi North 9.2 mph - N/A   Overcast
7:15 PM 48.4 °F 44.2 °F 86% 30.20 in 10.0 mi North 10.4 mph - N/A   Overcast
7:35 PM 48.4 °F 44.1 °F 85% 30.21 in 10.0 mi NNW 9.2 mph - N/A   Overcast
7:55 PM 48.2 °F 43.9 °F 85% 30.22 in 10.0 mi North 11.5 mph - N/A   Overcast
8:15 PM 47.8 °F 43.9 °F 86% 30.21 in 10.0 mi North 8.1 mph - N/A   Overcast
8:35 PM 47.5 °F 43.5 °F 86% 30.21 in 10.0 mi North 9.2 mph - N/A   Overcast
8:55 PM 47.3 °F 43.3 °F 86% 30.21 in 10.0 mi North 9.2 mph - N/A   Overcast
9:15 PM 47.3 °F 43.3 °F 86% 30.20 in 10.0 mi NNE 6.9 mph - N/A   Overcast
9:35 PM 47.5 °F 43.9 °F 87% 30.21 in 10.0 mi NNE 6.9 mph - N/A   Overcast
9:55 PM 47.5 °F 44.1 °F 88% 30.20 in 10.0 mi NNE 6.9 mph - N/A   Overcast
10:15 PM 47.8 °F 44.6 °F 89% 30.19 in 10.0 mi NNE 6.9 mph - N/A   Overcast
10:35 PM 47.5 °F 45.0 °F 91% 30.20 in 10.0 mi NE 5.8 mph - N/A   Overcast
10:55 PM 47.5 °F 45.5 °F 93% 30.20 in 10.0 mi NE 3.5 mph - N/A   Overcast
11:15 PM 47.3 °F 46.2 °F 96% 30.19 in 10.0 mi Calm Calm - N/A   Mostly Cloudy
11:35 PM 47.5 °F 47.3 °F 99% 30.20 in 10.0 mi NNW 4.6 mph - N/A   Overcast
11:55 PM 47.8 °F 47.5 °F 99% 30.19 in 10.0 mi North 4.6 mph - N/A   Overcast